| time (UTC) | temp C | wind direction | speed KPH | gust KPH | rain 1hr cm | rain 24hr cm | rain mn cm | humidity % | barometer mb |
| 20260509200554 | 16 | 360 | 20.9 | 0.0 | 0.00 | 0.00 | 0.00 | 34 | 1016.5 |
| 20260509200100 | 17 | 360 | 24.1 | 0.0 | 0.00 | 0.00 | 0.00 | 34 | 1016.6 |
| 20260509195553 | 16 | 360 | 22.5 | 0.0 | 0.00 | 0.00 | 0.00 | 35 | 1016.5 |
| 20260509195055 | 17 | 360 | 22.5 | 0.0 | 0.00 | 0.00 | 0.00 | 34 | 1016.5 |
| 20260509194550 | 17 | 360 | 22.5 | 0.0 | 0.00 | 0.00 | 0.00 | 34 | 1016.5 |
| 20260509194049 | 17 | 360 | 20.9 | 0.0 | 0.00 | 0.00 | 0.00 | 35 | 1016.5 |
| 20260509193549 | 16 | 360 | 22.5 | 0.0 | 0.00 | 0.00 | 0.00 | 35 | 1016.5 |
| 20260509193049 | 16 | 360 | 19.3 | 0.0 | 0.00 | 0.00 | 0.00 | 36 | 1016.5 |
| 20260509192550 | 16 | 360 | 17.7 | 0.0 | 0.00 | 0.00 | 0.00 | 36 | 1016.4 |
| 20260509192048 | 16 | 360 | 17.7 | 0.0 | 0.00 | 0.00 | 0.00 | 37 | 1016.5 |
| 20260509191548 | 16 | 360 | 16.1 | 0.0 | 0.00 | 0.00 | 0.00 | 36 | 1016.5 |
| 20260509190546 | 16 | 360 | 17.7 | 0.0 | 0.00 | 0.00 | 0.00 | 38 | 1016.6 |
| 20260509190046 | 15 | 360 | 16.1 | 0.0 | 0.00 | 0.00 | 0.00 | 38 | 1016.5 |
| 20260509185545 | 16 | 360 | 16.1 | 0.0 | 0.00 | 0.00 | 0.00 | 39 | 1016.5 |
| 20260509185045 | 15 | 360 | 16.1 | 0.0 | 0.00 | 0.00 | 0.00 | 39 | 1016.5 |
| 20260509184552 | 15 | 360 | 14.5 | 0.0 | 0.00 | 0.00 | 0.00 | 39 | 1016.6 |
| 20260509184043 | 15 | 360 | 16.1 | 0.0 | 0.00 | 0.00 | 0.00 | 39 | 1016.6 |
| 20260509183544 | 15 | 360 | 19.3 | 0.0 | 0.00 | 0.00 | 0.00 | 40 | 1016.7 |
| 20260509183043 | 15 | 360 | 16.1 | 0.0 | 0.00 | 0.00 | 0.00 | 40 | 1016.6 |
| 20260509182541 | 14 | 360 | 16.1 | 0.0 | 0.00 | 0.00 | 0.00 | 41 | 1016.6 |
| 20260509182040 | 14 | 360 | 17.7 | 0.0 | 0.00 | 0.00 | 0.00 | 42 | 1016.6 |
| 20260509181552 | 14 | 360 | 19.3 | 0.0 | 0.00 | 0.00 | 0.00 | 40 | 1016.5 |
| 20260509180540 | 14 | 360 | 19.3 | 0.0 | 0.00 | 0.00 | 0.00 | 40 | 1016.5 |
| 20260509180046 | 13 | 360 | 19.3 | 0.0 | 0.00 | 0.00 | 0.00 | 41 | 1016.6 |
| 20260509175539 | 13 | 360 | 17.7 | 0.0 | 0.00 | 0.00 | 0.00 | 42 | 1016.6 |
| 20260509175039 | 13 | 360 | 16.1 | 0.0 | 0.00 | 0.00 | 0.00 | 42 | 1016.6 |
| 20260509174537 | 13 | 360 | 14.5 | 0.0 | 0.00 | 0.00 | 0.00 | 44 | 1016.7 |
| 20260509174036 | 13 | 360 | 12.9 | 0.0 | 0.00 | 0.00 | 0.00 | 44 | 1016.7 |
| 20260509173536 | 13 | 360 | 14.5 | 0.0 | 0.00 | 0.00 | 0.00 | 45 | 1016.7 |
| 20260509173040 | 13 | 360 | 16.1 | 0.0 | 0.00 | 0.00 | 0.00 | 44 | 1016.8 |
| 20260509172537 | 13 | 360 | 14.5 | 0.0 | 0.00 | 0.00 | 0.00 | 46 | 1016.6 |
| 20260509172035 | 13 | 360 | 16.1 | 0.0 | 0.00 | 0.00 | 0.00 | 46 | 1016.6 |
| 20260509171537 | 13 | 360 | 16.1 | 0.0 | 0.00 | 0.00 | 0.00 | 45 | 1016.7 |
| 20260509170533 | 12 | 360 | 17.7 | 0.0 | 0.00 | 0.00 | 0.00 | 46 | 1016.6 |
| 20260509170042 | 12 | 360 | 19.3 | 0.0 | 0.00 | 0.00 | 0.00 | 45 | 1016.6 |
| 20260509165532 | 12 | 360 | 14.5 | 0.0 | 0.00 | 0.00 | 0.00 | 47 | 1016.6 |
| 20260509165031 | 12 | 360 | 14.5 | 0.0 | 0.00 | 0.00 | 0.00 | 49 | 1016.6 |
| 20260509164537 | 12 | 360 | 14.5 | 0.0 | 0.00 | 0.00 | 0.00 | 48 | 1016.7 |
| 20260509164032 | 12 | 360 | 14.5 | 0.0 | 0.00 | 0.00 | 0.00 | 50 | 1016.6 |
| 20260509163529 | 12 | 360 | 16.1 | 0.0 | 0.00 | 0.00 | 0.00 | 52 | 1016.6 |
| 20260509163032 | 11 | 360 | 16.1 | 0.0 | 0.00 | 0.00 | 0.00 | 51 | 1016.6 |
| 20260509162528 | 11 | 360 | 14.5 | 0.0 | 0.00 | 0.00 | 0.00 | 53 | 1016.6 |
| 20260509162026 | 11 | 360 | 11.3 | 0.0 | 0.00 | 0.00 | 0.00 | 55 | 1016.6 |
| 20260509161532 | 11 | 360 | 8.0 | 0.0 | 0.00 | 0.00 | 0.00 | 59 | 1016.6 |
| 20260509160526 | 10 | 360 | 4.8 | 0.0 | 0.00 | 0.00 | 0.00 | 64 | 1016.6 |
| 20260509160031 | 10 | 360 | 9.7 | 0.0 | 0.00 | 0.00 | 0.00 | 63 | 1016.6 |
| 20260509155524 | 10 | 360 | 12.9 | 0.0 | 0.00 | 0.00 | 0.00 | 63 | 1016.7 |
| 20260509155023 | 10 | 360 | 12.9 | 0.0 | 0.00 | 0.00 | 0.00 | 64 | 1016.6 |
| 20260509154522 | 10 | 360 | 12.9 | 0.0 | 0.00 | 0.00 | 0.00 | 67 | 1016.5 |
| 20260509154022 | 9 | 360 | 8.0 | 0.0 | 0.00 | 0.00 | 0.00 | 68 | 1016.5 |
| 20260509153523 | 9 | 360 | 8.0 | 0.0 | 0.00 | 0.00 | 0.00 | 68 | 1016.6 |
| 20260509153019 | 9 | 360 | 11.3 | 0.0 | 0.00 | 0.00 | 0.00 | 68 | 1016.6 |
| 20260509152518 | 8 | 360 | 11.3 | 0.0 | 0.00 | 0.00 | 0.00 | 68 | 1016.5 |
| 20260509152018 | 8 | 360 | 11.3 | 0.0 | 0.00 | 0.00 | 0.00 | 70 | 1016.6 |
| 20260509151517 | 8 | 360 | 11.3 | 0.0 | 0.00 | 0.00 | 0.00 | 72 | 1016.5 |
| 20260509150517 | 8 | 360 | 11.3 | 0.0 | 0.00 | 0.00 | 0.00 | 73 | 1016.4 |
| 20260509150015 | 8 | 360 | 11.3 | 0.0 | 0.00 | 0.00 | 0.00 | 74 | 1016.5 |
| 20260509145515 | 8 | 360 | 11.3 | 0.0 | 0.00 | 0.00 | 0.00 | 75 | 1016.5 |
| 20260509145013 | 7 | 360 | 9.7 | 0.0 | 0.00 | 0.00 | 0.00 | 76 | 1016.4 |
| 20260509144511 | 7 | 360 | 9.7 | 0.0 | 0.00 | 0.00 | 0.00 | 78 | 1016.3 |
| 20260509144010 | 7 | 360 | 9.7 | 0.0 | 0.00 | 0.00 | 0.00 | 78 | 1016.3 |
| 20260509143509 | 7 | 360 | 9.7 | 0.0 | 0.00 | 0.00 | 0.00 | 79 | 1016.3 |
| 20260509143009 | 7 | 360 | 8.0 | 0.0 | 0.00 | 0.00 | 0.00 | 80 | 1016.3 |
| 20260509142509 | 7 | 360 | 8.0 | 0.0 | 0.00 | 0.00 | 0.00 | 81 | 1016.3 |
| 20260509142008 | 6 | 360 | 6.4 | 0.0 | 0.00 | 0.00 | 0.00 | 82 | 1016.3 |
| 20260509141508 | 6 | 360 | 4.8 | 0.0 | 0.00 | 0.00 | 0.00 | 82 | 1016.2 |
| 20260509140508 | 6 | 360 | 6.4 | 0.0 | 0.00 | 0.00 | 0.00 | 83 | 1016.1 |
| 20260509140007 | 6 | 360 | 6.4 | 0.0 | 0.00 | 0.00 | 0.00 | 83 | 1016.1 |
| 20260509135510 | 6 | 360 | 6.4 | 0.0 | 0.00 | 0.00 | 0.00 | 84 | 1016.0 |
| 20260509135006 | 5 | 360 | 6.4 | 0.0 | 0.00 | 0.00 | 0.00 | 85 | 1015.9 |
| 20260509134504 | 5 | 360 | 6.4 | 0.0 | 0.00 | 0.00 | 0.00 | 85 | 1015.8 |
| 20260509134004 | 5 | 360 | 4.8 | 0.0 | 0.00 | 0.00 | 0.00 | 85 | 1015.8 |
| 20260509133504 | 5 | 360 | 4.8 | 0.0 | 0.00 | 0.00 | 0.00 | 86 | 1015.7 |
| 20260509133004 | 5 | 360 | 3.2 | 0.0 | 0.00 | 0.00 | 0.00 | 86 | 1015.6 |
| 20260509132503 | 5 | 360 | 4.8 | 0.0 | 0.00 | 0.00 | 0.00 | 87 | 1015.6 |
| 20260509132004 | 4 | 360 | 6.4 | 0.0 | 0.00 | 0.00 | 0.00 | 87 | 1015.5 |
| 20260509131501 | 4 | 360 | 8.0 | 0.0 | 0.00 | 0.00 | 0.00 | 88 | 1015.4 |
| 20260509130502 | 3 | 360 | 8.0 | 0.0 | 0.00 | 0.00 | 0.00 | 88 | 1015.3 |
| 20260509130002 | 3 | 360 | 6.4 | 0.0 | 0.00 | 0.00 | 0.00 | 89 | 1015.2 |
| 20260509125601 | 3 | 360 | 4.8 | 0.0 | 0.00 | 0.00 | 0.00 | 89 | 1015.2 |
| 20260509125059 | 3 | 360 | 3.2 | 0.0 | 0.00 | 0.00 | 0.00 | 89 | 1015.1 |
| 20260509124617 | 3 | 360 | 3.2 | 0.0 | 0.00 | 0.00 | 0.00 | 90 | 1015.0 |
| 20260509124100 | 2 | 360 | 1.6 | 0.0 | 0.00 | 0.00 | 0.00 | 90 | 1014.9 |
| 20260509123600 | 2 | 360 | 0.0 | 0.0 | 0.00 | 0.00 | 0.00 | 90 | 1014.7 |
| 20260509123058 | 2 | 360 | 1.6 | 0.0 | 0.00 | 0.00 | 0.00 | 89 | 1014.8 |
| 20260509122556 | 2 | 360 | 3.2 | 0.0 | 0.00 | 0.00 | 0.00 | 90 | 1014.7 |
| 20260509122055 | 1 | 360 | 1.6 | 0.0 | 0.00 | 0.00 | 0.00 | 89 | 1014.5 |
| 20260509121606 | 1 | 360 | 1.6 | 0.0 | 0.00 | 0.00 | 0.00 | 89 | 1014.4 |
| 20260509120555 | 1 | 360 | 3.2 | 0.0 | 0.00 | 0.00 | 0.00 | 89 | 1014.2 |
| 20260509120111 | 1 | 360 | 3.2 | 0.0 | 0.00 | 0.00 | 0.00 | 88 | 1014.1 |
| 20260509115553 | 1 | 360 | 4.8 | 0.0 | 0.00 | 0.00 | 0.00 | 89 | 1014.0 |
| 20260509115053 | 1 | 360 | 4.8 | 0.0 | 0.00 | 0.00 | 0.00 | 89 | 1014.0 |
| 20260509114552 | 1 | 360 | 4.8 | 0.0 | 0.00 | 0.00 | 0.00 | 90 | 1014.0 |
| 20260509114051 | 1 | 360 | 1.6 | 0.0 | 0.00 | 0.00 | 0.00 | 90 | 1013.9 |
| 20260509113550 | 0 | 360 | 0.0 | 0.0 | 0.00 | 0.00 | 0.00 | 90 | 1013.8 |
| 20260509113054 | 0 | 360 | 0.0 | 0.0 | 0.00 | 0.00 | 0.00 | 90 | 1013.7 |
| 20260509112548 | 0 | 360 | 1.6 | 0.0 | 0.00 | 0.00 | 0.00 | 90 | 1013.6 |
| 20260509112048 | 0 | 360 | 1.6 | 0.0 | 0.00 | 0.00 | 0.00 | 90 | 1013.4 |
| 20260509111547 | 0 | 360 | 1.6 | 0.0 | 0.00 | 0.00 | 0.00 | 89 | 1013.4 |
| 20260509110546 | 0 | 360 | 0.0 | 0.0 | 0.00 | 0.00 | 0.00 | 89 | 1013.2 |
| 20260509110047 | 0 | 360 | 1.6 | 0.0 | 0.00 | 0.00 | 0.00 | 88 | 1013.2 |
| 20260509105547 | 0 | 360 | 3.2 | 0.0 | 0.00 | 0.00 | 0.00 | 88 | 1013.2 |
| 20260509105045 | 0 | 360 | 3.2 | 0.0 | 0.00 | 0.00 | 0.00 | 88 | 1013.1 |
| 20260509104543 | 0 | 360 | 3.2 | 0.0 | 0.00 | 0.00 | 0.00 | 88 | 1013.1 |
| 20260509104042 | 0 | 360 | 1.6 | 0.0 | 0.00 | 0.00 | 0.00 | 89 | 1013.0 |
| 20260509103541 | 0 | 360 | 0.0 | 0.0 | 0.00 | 0.00 | 0.00 | 88 | 1012.9 |
| 20260509103041 | 0 | 360 | 0.0 | 0.0 | 0.00 | 0.00 | 0.00 | 88 | 1012.8 |
| 20260509102540 | 0 | 360 | 1.6 | 0.0 | 0.00 | 0.00 | 0.00 | 88 | 1012.8 |
| 20260509102040 | 0 | 360 | 1.6 | 0.0 | 0.00 | 0.00 | 0.00 | 88 | 1012.7 |
| 20260509101550 | 0 | 360 | 1.6 | 0.0 | 0.00 | 0.00 | 0.00 | 87 | 1012.7 |
| 20260509100536 | 1 | 360 | 3.2 | 0.0 | 0.00 | 0.00 | 0.00 | 88 | 1012.6 |
| 20260509100042 | 1 | 360 | 4.8 | 0.0 | 0.00 | 0.00 | 0.00 | 88 | 1012.6 |
| 20260509095536 | 1 | 360 | 4.8 | 0.0 | 0.00 | 0.00 | 0.00 | 88 | 1012.5 |
| 20260509095034 | 1 | 360 | 3.2 | 0.0 | 0.00 | 0.00 | 0.00 | 87 | 1012.5 |
| 20260509094533 | 1 | 360 | 1.6 | 0.0 | 0.00 | 0.00 | 0.00 | 87 | 1012.4 |
| 20260509094032 | 1 | 360 | 1.6 | 0.0 | 0.00 | 0.00 | 0.00 | 87 | 1012.4 |
| 20260509093531 | 2 | 360 | 0.0 | 0.0 | 0.00 | 0.00 | 0.00 | 88 | 1012.3 |
| 20260509093031 | 2 | 360 | 0.0 | 0.0 | 0.00 | 0.00 | 0.00 | 87 | 1012.2 |
| 20260509092530 | 2 | 360 | 1.6 | 0.0 | 0.00 | 0.00 | 0.00 | 87 | 1012.0 |
| 20260509092029 | 2 | 360 | 3.2 | 0.0 | 0.00 | 0.00 | 0.00 | 87 | 1011.9 |
| 20260509091533 | 2 | 360 | 4.8 | 0.0 | 0.00 | 0.00 | 0.00 | 88 | 1011.8 |
| 20260509090528 | 2 | 360 | 4.8 | 0.0 | 0.00 | 0.00 | 0.00 | 88 | 1011.7 |
| 20260509090028 | 2 | 360 | 4.8 | 0.0 | 0.00 | 0.00 | 0.00 | 88 | 1011.6 |
| 20260509085527 | 2 | 360 | 4.8 | 0.0 | 0.00 | 0.00 | 0.00 | 88 | 1011.5 |
| 20260509085026 | 2 | 360 | 4.8 | 0.0 | 0.00 | 0.00 | 0.00 | 88 | 1011.4 |
| 20260509084530 | 2 | 360 | 4.8 | 0.0 | 0.00 | 0.00 | 0.00 | 88 | 1011.4 |
| 20260509084030 | 2 | 360 | 4.8 | 0.0 | 0.00 | 0.00 | 0.00 | 87 | 1011.3 |
| 20260509083526 | 2 | 360 | 4.8 | 0.0 | 0.00 | 0.00 | 0.00 | 88 | 1011.3 |
| 20260509083025 | 2 | 360 | 4.8 | 0.0 | 0.00 | 0.00 | 0.00 | 88 | 1011.3 |
| 20260509082524 | 2 | 360 | 4.8 | 0.0 | 0.00 | 0.00 | 0.00 | 87 | 1011.1 |
| 20260509082025 | 2 | 360 | 4.8 | 0.0 | 0.00 | 0.00 | 0.00 | 86 | 1011.0 |
| 20260509081522 | 2 | 360 | 3.2 | 0.0 | 0.00 | 0.00 | 0.00 | 86 | 1010.9 |
| 20260509080521 | 3 | 360 | 3.2 | 0.0 | 0.00 | 0.00 | 0.00 | 86 | 1010.8 |
| 20260509080021 | 3 | 360 | 3.2 | 0.0 | 0.00 | 0.00 | 0.00 | 85 | 1010.7 |
| 20260509075520 | 3 | 360 | 3.2 | 0.0 | 0.00 | 0.00 | 0.00 | 84 | 1010.6 |
| 20260509075021 | 3 | 360 | 1.6 | 0.0 | 0.00 | 0.00 | 0.00 | 84 | 1010.6 |
| 20260509074517 | 4 | 360 | 3.2 | 0.0 | 0.00 | 0.00 | 0.00 | 85 | 1010.5 |
| 20260509074015 | 4 | 360 | 4.8 | 0.0 | 0.00 | 0.00 | 0.00 | 84 | 1010.5 |
| 20260509073519 | 5 | 360 | 4.8 | 0.0 | 0.00 | 0.00 | 0.00 | 85 | 1010.4 |
| 20260509073023 | 5 | 360 | 6.4 | 0.0 | 0.00 | 0.00 | 0.00 | 84 | 1010.3 |
| 20260509072516 | 5 | 360 | 6.4 | 0.0 | 0.00 | 0.00 | 0.00 | 84 | 1010.3 |
| 20260509072014 | 5 | 360 | 6.4 | 0.0 | 0.00 | 0.00 | 0.00 | 84 | 1010.2 |
| 20260509071512 | 5 | 360 | 6.4 | 0.0 | 0.00 | 0.00 | 0.00 | 85 | 1010.0 |
| 20260509070510 | 5 | 360 | 6.4 | 0.0 | 0.00 | 0.00 | 0.00 | 85 | 1010.1 |
| 20260509070008 | 5 | 360 | 4.8 | 0.0 | 0.00 | 0.00 | 0.00 | 85 | 1010.1 |
| 20260509065507 | 5 | 360 | 3.2 | 0.0 | 0.00 | 0.00 | 0.00 | 84 | 1009.9 |
| 20260509065006 | 6 | 360 | 4.8 | 0.0 | 0.00 | 0.00 | 0.00 | 84 | 1009.9 |
| 20260509064505 | 6 | 360 | 4.8 | 0.0 | 0.00 | 0.00 | 0.00 | 84 | 1009.9 |
| 20260509064004 | 6 | 360 | 4.8 | 0.0 | 0.00 | 0.00 | 0.00 | 84 | 1009.9 |
| 20260509063501 | 7 | 360 | 4.8 | 0.0 | 0.00 | 0.00 | 0.00 | 84 | 1009.9 |
| 20260509063001 | 7 | 360 | 6.4 | 0.0 | 0.00 | 0.00 | 0.05 | 84 | 1009.9 |
| 20260509062501 | 7 | 360 | 6.4 | 0.0 | 0.00 | 0.00 | 0.05 | 84 | 1009.8 |
| 20260509062000 | 7 | 360 | 8.0 | 0.0 | 0.00 | 0.00 | 0.05 | 85 | 1009.6 |
| 20260509061500 | 7 | 360 | 6.4 | 0.0 | 0.00 | 0.00 | 0.05 | 85 | 1009.5 |
| 20260509060501 | 8 | 360 | 6.4 | 0.0 | 0.00 | 0.00 | 0.05 | 85 | 1009.3 |
| 20260509060002 | 8 | 360 | 8.0 | 0.0 | 0.00 | 0.00 | 0.05 | 86 | 1009.4 |
| 20260509055504 | 8 | 360 | 8.0 | 0.0 | 0.00 | 0.00 | 0.05 | 86 | 1009.3 |
| 20260509055001 | 8 | 360 | 6.4 | 0.0 | 0.00 | 0.00 | 0.05 | 87 | 1009.1 |
| 20260509054614 | 8 | 360 | 4.8 | 0.0 | 0.00 | 0.00 | 0.05 | 88 | 1009.1 |
| 20260509054501 | 8 | 360 | 4.8 | 0.0 | 0.00 | 0.00 | 0.05 | 88 | 1009.0 |
| 20260509054100 | 8 | 360 | 4.8 | 0.0 | 0.00 | 0.00 | 0.05 | 88 | 1009.0 |
| 20260509054001 | 8 | 360 | 4.8 | 0.0 | 0.00 | 0.00 | 0.05 | 88 | 1009.0 |
| 20260509053602 | 8 | 360 | 6.4 | 0.0 | 0.00 | 0.00 | 0.05 | 88 | 1009.0 |
| 20260509053105 | 8 | 360 | 6.4 | 0.0 | 0.00 | 0.00 | 0.05 | 87 | 1009.1 |
| 20260509052601 | 8 | 360 | 6.4 | 0.0 | 0.00 | 0.00 | 0.05 | 87 | 1009.1 |
| 20260509052059 | 9 | 360 | 6.4 | 0.0 | 0.00 | 0.00 | 0.05 | 87 | 1009.1 |
| 20260509051600 | 8 | 360 | 6.4 | 0.0 | 0.00 | 0.00 | 0.05 | 86 | 1009.0 |
| 20260509051159 | 9 | 360 | 3.2 | 0.0 | 0.00 | 0.00 | 0.05 | 84 | 1008.8 |
| 20260509050600 | 9 | 360 | 3.2 | 0.0 | 0.00 | 0.00 | 0.05 | 84 | 1008.7 |
| 20260509050059 | 9 | 360 | 1.6 | 0.0 | 0.00 | 0.00 | 0.05 | 83 | 1008.5 |
| 20260509045559 | 9 | 360 | 0.0 | 0.0 | 0.00 | 0.00 | 0.05 | 83 | 1008.4 |
| 20260509045059 | 10 | 360 | 1.6 | 0.0 | 0.00 | 0.00 | 0.05 | 82 | 1008.4 |
| 20260509044559 | 10 | 360 | 3.2 | 0.0 | 0.00 | 0.00 | 0.05 | 81 | 1008.4 |
| 20260509044100 | 10 | 360 | 3.2 | 0.0 | 0.00 | 0.00 | 0.05 | 80 | 1008.1 |
| 20260509043558 | 10 | 360 | 3.2 | 0.0 | 0.00 | 0.00 | 0.05 | 79 | 1008.2 |
| 20260509043059 | 10 | 360 | 3.2 | 0.0 | 0.00 | 0.00 | 0.05 | 78 | 1008.3 |
| 20260509042603 | 10 | 360 | 3.2 | 0.0 | 0.00 | 0.00 | 0.03 | 77 | 1008.5 |
| 20260509042100 | 10 | 360 | 3.2 | 0.0 | 0.00 | 0.00 | 0.03 | 76 | 1008.6 |
| 20260509041559 | 10 | 360 | 4.8 | 0.0 | 0.00 | 0.00 | 0.00 | 76 | 1008.6 |
| 20260509041159 | 11 | 360 | 6.4 | 0.0 | 0.00 | 0.00 | 0.00 | 74 | 1008.5 |
| 20260509040558 | 11 | 360 | 8.0 | 0.0 | 0.00 | 0.00 | 0.00 | 73 | 1008.4 |
| 20260509040126 | 11 | 360 | 11.3 | 0.0 | 0.00 | 0.00 | 0.00 | 72 | 1008.2 |
| 20260509035558 | 11 | 360 | 12.9 | 0.0 | 0.00 | 0.00 | 0.00 | 70 | 1008.1 |
| 20260509035057 | 11 | 360 | 12.9 | 0.0 | 0.00 | 0.00 | 0.00 | 68 | 1008.1 |
| 20260509034601 | 11 | 360 | 12.9 | 0.0 | 0.00 | 0.00 | 0.00 | 68 | 1007.9 |
| 20260509034056 | 11 | 360 | 11.3 | 0.0 | 0.00 | 0.00 | 0.00 | 67 | 1007.8 |
| 20260509033557 | 11 | 360 | 11.3 | 0.0 | 0.00 | 0.00 | 0.00 | 67 | 1007.7 |
| 20260509033057 | 11 | 360 | 11.3 | 0.0 | 0.00 | 0.00 | 0.00 | 67 | 1007.7 |
| 20260509032557 | 11 | 360 | 12.9 | 0.0 | 0.00 | 0.00 | 0.00 | 66 | 1007.6 |
| 20260509032056 | 11 | 360 | 12.9 | 0.0 | 0.00 | 0.00 | 0.00 | 65 | 1007.8 |
| 20260509031559 | 12 | 360 | 12.9 | 0.0 | 0.00 | 0.00 | 0.00 | 64 | 1007.7 |
| 20260509031159 | 12 | 360 | 12.9 | 0.0 | 0.00 | 0.00 | 0.00 | 62 | 1008.0 |
| 20260509030558 | 12 | 360 | 14.5 | 0.0 | 0.00 | 0.00 | 0.00 | 62 | 1008.2 |
| 20260509030100 | 12 | 360 | 14.5 | 0.0 | 0.00 | 0.00 | 0.00 | 61 | 1008.2 |
| 20260509025557 | 12 | 360 | 14.5 | 0.0 | 0.00 | 0.00 | 0.00 | 61 | 1008.1 |
| 20260509025057 | 12 | 360 | 16.1 | 0.0 | 0.00 | 0.00 | 0.00 | 62 | 1007.9 |
| 20260509024558 | 12 | 360 | 17.7 | 0.0 | 0.00 | 0.00 | 0.00 | 61 | 1007.8 |
| 20260509024057 | 12 | 360 | 17.7 | 0.0 | 0.00 | 0.00 | 0.00 | 61 | 1007.5 |
| 20260509023602 | 12 | 360 | 17.7 | 0.0 | 0.00 | 0.00 | 0.00 | 63 | 1007.3 |
| 20260509023057 | 12 | 360 | 17.7 | 0.0 | 0.00 | 0.00 | 0.00 | 64 | 1007.3 |
| 20260509022559 | 12 | 360 | 16.1 | 0.0 | 0.00 | 0.00 | 0.00 | 66 | 1007.1 |
| 20260509022057 | 12 | 360 | 11.3 | 0.0 | 0.00 | 0.00 | 0.00 | 69 | 1007.0 |
| 20260509021557 | 12 | 360 | 6.4 | 0.0 | 0.00 | 0.00 | 0.00 | 71 | 1006.8 |
| 20260509021156 | 12 | 360 | 6.4 | 0.0 | 0.00 | 0.00 | 0.00 | 70 | 1006.6 |
| 20260509020555 | 12 | 360 | 6.4 | 0.0 | 0.00 | 0.00 | 0.00 | 69 | 1006.5 |
| 20260509020055 | 12 | 360 | 8.0 | 0.0 | 0.00 | 0.00 | 0.00 | 69 | 1006.6 |
| 20260509015556 | 13 | 360 | 11.3 | 0.0 | 0.00 | 0.00 | 0.00 | 66 | 1006.6 |
| 20260509015056 | 13 | 360 | 12.9 | 0.0 | 0.00 | 0.00 | 0.00 | 66 | 1006.6 |
| 20260509014556 | 13 | 360 | 14.5 | 0.0 | 0.00 | 0.00 | 0.00 | 66 | 1006.8 |
| 20260509014056 | 13 | 360 | 11.3 | 0.0 | 0.00 | 0.00 | 0.00 | 65 | 1007.0 |
| 20260509013555 | 14 | 360 | 9.7 | 0.0 | 0.00 | 0.00 | 0.00 | 65 | 1007.1 |
| 20260509013056 | 15 | 360 | 9.7 | 0.0 | 0.00 | 0.00 | 0.00 | 61 | 1007.1 |
| 20260509012554 | 15 | 360 | 12.9 | 0.0 | 0.00 | 0.00 | 0.00 | 57 | 1007.1 |
| 20260509012055 | 15 | 360 | 14.5 | 0.0 | 0.00 | 0.00 | 0.00 | 55 | 1006.7 |
| 20260509011605 | 15 | 360 | 11.3 | 0.0 | 0.00 | 0.00 | 0.00 | 56 | 1006.4 |
| 20260509011155 | 15 | 360 | 6.4 | 0.0 | 0.00 | 0.00 | 0.00 | 62 | 1005.8 |
| 20260509010555 | 15 | 360 | 4.8 | 0.0 | 0.00 | 0.00 | 0.00 | 64 | 1005.7 |
| 20260509010055 | 15 | 360 | 6.4 | 0.0 | 0.00 | 0.00 | 0.00 | 65 | 1005.8 |
| 20260509005555 | 14 | 360 | 6.4 | 0.0 | 0.00 | 0.00 | 0.00 | 66 | 1006.1 |
| 20260509005056 | 14 | 360 | 4.8 | 0.0 | 0.00 | 0.00 | 0.00 | 68 | 1006.2 |
| 20260509004609 | 14 | 360 | 6.4 | 0.0 | 0.00 | 0.00 | 0.00 | 69 | 1006.4 |
| 20260509004055 | 14 | 360 | 8.0 | 0.0 | 0.00 | 0.00 | 0.00 | 69 | 1006.6 |
| 20260509003558 | 14 | 360 | 9.7 | 0.0 | 0.00 | 0.00 | 0.00 | 68 | 1006.4 |
| 20260509003055 | 14 | 360 | 11.3 | 0.0 | 0.00 | 0.00 | 0.00 | 66 | 1006.0 |
| 20260509002556 | 14 | 360 | 14.5 | 0.0 | 0.00 | 0.00 | 0.00 | 67 | 1006.2 |
| 20260509002054 | 14 | 360 | 22.5 | 0.0 | 0.00 | 0.00 | 0.00 | 65 | 1006.3 |
| 20260509001554 | 15 | 360 | 35.4 | 0.0 | 0.00 | 0.00 | 0.00 | 61 | 1006.5 |
| 20260509001156 | 17 | 360 | 33.8 | 0.0 | 0.00 | 0.00 | 0.00 | 45 | 1006.4 |
| 20260509000554 | 18 | 360 | 29.0 | 0.0 | 0.00 | 0.00 | 0.00 | 40 | 1005.9 |
| 20260509000056 | 20 | 360 | 24.1 | 0.0 | 0.00 | 0.00 | 0.00 | 33 | 1005.8 |
| 20260508235554 | 20 | 360 | 22.5 | 0.0 | 0.00 | 0.00 | 0.00 | 31 | 1005.4 |
| 20260508235052 | 20 | 360 | 22.5 | 0.0 | 0.00 | 0.00 | 0.00 | 31 | 1005.2 |
| 20260508234553 | 21 | 360 | 22.5 | 0.0 | 0.00 | 0.00 | 0.00 | 31 | 1005.0 |
| 20260508234052 | 21 | 360 | 19.3 | 0.0 | 0.00 | 0.00 | 0.00 | 30 | 1005.0 |
| 20260508233552 | 21 | 360 | 17.7 | 0.0 | 0.00 | 0.00 | 0.00 | 30 | 1005.0 |
| 20260508233052 | 22 | 360 | 20.9 | 0.0 | 0.00 | 0.00 | 0.00 | 30 | 1005.2 |
| 20260508232553 | 22 | 360 | 22.5 | 0.0 | 0.00 | 0.00 | 0.00 | 29 | 1005.2 |
| 20260508232049 | 21 | 360 | 22.5 | 0.0 | 0.00 | 0.00 | 0.00 | 31 | 1005.4 |
| 20260508231550 | 21 | 360 | 24.1 | 0.0 | 0.00 | 0.00 | 0.00 | 31 | 1005.6 |
| 20260508231149 | 21 | 360 | 24.1 | 0.0 | 0.00 | 0.00 | 0.00 | 31 | 1005.7 |
| 20260508230548 | 21 | 360 | 22.5 | 0.0 | 0.00 | 0.00 | 0.00 | 31 | 1005.7 |
| 20260508230048 | 21 | 360 | 20.9 | 0.0 | 0.00 | 0.00 | 0.00 | 31 | 1005.7 |
| 20260508225547 | 21 | 360 | 20.9 | 0.0 | 0.00 | 0.00 | 0.00 | 31 | 1005.7 |
| 20260508225048 | 21 | 360 | 19.3 | 0.0 | 0.00 | 0.00 | 0.00 | 30 | 1005.8 |
| 20260508224546 | 21 | 360 | 17.7 | 0.0 | 0.00 | 0.00 | 0.00 | 31 | 1005.8 |
| 20260508224045 | 21 | 360 | 17.7 | 0.0 | 0.00 | 0.00 | 0.00 | 31 | 1005.9 |
| 20260508223545 | 21 | 360 | 17.7 | 0.0 | 0.00 | 0.00 | 0.00 | 32 | 1006.1 |
| 20260508223050 | 20 | 360 | 17.7 | 0.0 | 0.00 | 0.00 | 0.00 | 32 | 1006.3 |
| 20260508222544 | 20 | 360 | 19.3 | 0.0 | 0.00 | 0.00 | 0.00 | 32 | 1006.4 |
| 20260508222044 | 20 | 360 | 20.9 | 0.0 | 0.00 | 0.00 | 0.00 | 32 | 1006.6 |
| 20260508221544 | 20 | 360 | 20.9 | 0.0 | 0.00 | 0.00 | 0.00 | 32 | 1006.7 |
| 20260508221144 | 20 | 360 | 27.4 | 0.0 | 0.00 | 0.00 | 0.00 | 32 | 1006.8 |
| 20260508220544 | 20 | 360 | 30.6 | 0.0 | 0.00 | 0.00 | 0.00 | 32 | 1006.8 |
| 20260508220046 | 20 | 360 | 30.6 | 0.0 | 0.00 | 0.00 | 0.00 | 31 | 1006.9 |
| 20260508215544 | 20 | 360 | 30.6 | 0.0 | 0.00 | 0.00 | 0.00 | 29 | 1006.7 |
| 20260508215044 | 20 | 360 | 33.8 | 0.0 | 0.00 | 0.00 | 0.00 | 29 | 1006.7 |
| 20260508214553 | 20 | 360 | 29.0 | 0.0 | 0.00 | 0.00 | 0.00 | 28 | 1006.6 |
| 20260508214044 | 21 | 360 | 27.4 | 0.0 | 0.00 | 0.00 | 0.00 | 25 | 1006.4 |
| 20260508213544 | 21 | 360 | 29.0 | 0.0 | 0.00 | 0.00 | 0.00 | 24 | 1006.2 |
| 20260508213043 | 22 | 360 | 27.4 | 0.0 | 0.00 | 0.00 | 0.00 | 21 | 1006.1 |
| 20260508212543 | 23 | 360 | 27.4 | 0.0 | 0.00 | 0.00 | 0.00 | 22 | 1006.1 |
| 20260508212042 | 23 | 360 | 25.7 | 0.0 | 0.00 | 0.00 | 0.00 | 22 | 1006.0 |
| 20260508211543 | 23 | 360 | 24.1 | 0.0 | 0.00 | 0.00 | 0.00 | 23 | 1006.1 |
| 20260508211142 | 23 | 360 | 27.4 | 0.0 | 0.00 | 0.00 | 0.00 | 22 | 1006.2 |
| 20260508210541 | 23 | 360 | 27.4 | 0.0 | 0.00 | 0.00 | 0.00 | 22 | 1006.3 |
| 20260508210041 | 22 | 360 | 25.7 | 0.0 | 0.00 | 0.00 | 0.00 | 22 | 1006.2 |
| 20260508205539 | 23 | 360 | 25.7 | 0.0 | 0.00 | 0.00 | 0.00 | 22 | 1006.4 |
| 20260508205039 | 23 | 360 | 24.1 | 0.0 | 0.00 | 0.00 | 0.00 | 23 | 1006.4 |
| 20260508204543 | 23 | 360 | 25.7 | 0.0 | 0.00 | 0.00 | 0.00 | 23 | 1006.6 |
| 20260508204040 | 23 | 360 | 25.7 | 0.0 | 0.00 | 0.00 | 0.00 | 23 | 1006.6 |
| 20260508203537 | 22 | 360 | 24.1 | 0.0 | 0.00 | 0.00 | 0.00 | 23 | 1006.6 |
| 20260508203037 | 23 | 360 | 22.5 | 0.0 | 0.00 | 0.00 | 0.00 | 22 | 1006.8 |
| 20260508202537 | 22 | 360 | 22.5 | 0.0 | 0.00 | 0.00 | 0.00 | 25 | 1006.9 |
| 20260508202038 | 22 | 360 | 25.7 | 0.0 | 0.00 | 0.00 | 0.00 | 23 | 1007.1 |
| 20260508201538 | 23 | 360 | 25.7 | 0.0 | 0.00 | 0.00 | 0.00 | 24 | 1007.0 |